OE6ACM-14 Weather Reports


Display with metric or nautical units.
time (UTC)temp
F
wind
direction
speed
MPH
gust
MPH
rain 1hr
in
rain 24hr
in
rain mn
in
humidity
%
barometer
mb
20260506113439 78 0.0 0.0 0.00 0.00 0.00 28 918.9
20260506112939 77 0.0 0.0 0.00 0.00 0.00 28 919.1
20260506112001 80 0.0 0.0 0.00 0.00 0.00 26 919.3
20260506111501 80 0.0 0.0 0.00 0.00 0.00 26 919.3
20260506111001 79 0.0 0.0 0.00 0.00 0.00 27 919.3
20260506110501 79 0.0 0.0 0.00 0.00 0.00 26 919.3
20260506110001 78 0.0 0.0 0.00 0.00 0.00 26 919.4
20260506105501 77 0.0 0.0 0.00 0.00 0.00 28 919.5
20260506105001 78 0.0 0.0 0.00 0.00 0.00 27 919.5
20260506104501 77 0.0 0.0 0.00 0.00 0.00 28 919.4
20260506104001 73 0.0 0.0 0.00 0.00 0.00 27 919.5
20260506103501 72 0.0 0.0 0.00 0.00 0.00 30 919.6
20260506103001 70 0.0 0.0 0.00 0.00 0.00 29 919.7
20260506102501 70 0.0 0.0 0.00 0.00 0.00 28 919.7
20260506102001 70 0.0 0.0 0.00 0.00 0.00 29 919.7
20260506101501 71 0.0 0.0 0.00 0.00 0.00 29 919.8
20260506101001 72 0.0 0.0 0.00 0.00 0.00 26 919.8
20260506100501 76 0.0 0.0 0.00 0.00 0.00 27 919.8
20260506100001 72 0.0 0.0 0.00 0.00 0.00 28 919.8
20260506095501 70 0.0 0.0 0.00 0.00 0.00 28 919.9
20260506095001 70 0.0 0.0 0.00 0.00 0.00 28 919.9
20260506094501 71 0.0 0.0 0.00 0.00 0.00 26 920.0
20260506094001 73 0.0 0.0 0.00 0.00 0.00 26 919.8
20260506093501 77 0.0 0.0 0.00 0.00 0.00 24 919.7
20260506093001 80 0.0 0.0 0.00 0.00 0.00 22 919.7
20260506092501 83 0.0 0.0 0.00 0.00 0.00 21 919.7
20260506092001 80 0.0 0.0 0.00 0.00 0.00 25 919.7
20260506091501 81 0.0 0.0 0.00 0.00 0.00 23 919.8
20260506091001 85 0.0 0.0 0.00 0.00 0.00 23 919.7
20260506090501 85 0.0 0.0 0.00 0.00 0.00 24 919.7
20260506090001 79 0.0 0.0 0.00 0.00 0.00 28 920.0
20260506085501 75 0.0 0.0 0.00 0.00 0.00 30 919.9
20260506085001 73 0.0 0.0 0.00 0.00 0.00 32 920.1
20260506084501 76 0.0 0.0 0.00 0.00 0.00 28 920.0
20260506084001 81 0.0 0.0 0.00 0.00 0.00 26 919.9
20260506083501 84 0.0 0.0 0.00 0.00 0.00 24 919.9
20260506083001 83 0.0 0.0 0.00 0.00 0.00 24 920.0
20260506082501 88 0.0 0.0 0.00 0.00 0.00 21 919.9
20260506082001 88 0.0 0.0 0.00 0.00 0.00 21 919.9
20260506081501 87 0.0 0.0 0.00 0.00 0.00 22 919.9
20260506081001 85 0.0 0.0 0.00 0.00 0.00 21 919.9
20260506080501 87 0.0 0.0 0.00 0.00 0.00 21 920.0
20260506073501 86 0.0 0.0 0.00 0.00 0.00 23 920.1
20260506073001 87 0.0 0.0 0.00 0.00 0.00 23 920.2
20260506072501 82 0.0 0.0 0.00 0.00 0.00 23 920.3
20260506072001 84 0.0 0.0 0.00 0.00 0.00 24 920.2
20260506071501 82 0.0 0.0 0.00 0.00 0.00 26 920.4
20260506071001 79 0.0 0.0 0.00 0.00 0.00 28 920.4
20260506070501 83 0.0 0.0 0.00 0.00 0.00 28 920.4
20260506062501 84 0.0 0.0 0.00 0.00 0.00 26 920.6
20260506062001 77 0.0 0.0 0.00 0.00 0.00 32 920.8
20260506061501 80 0.0 0.0 0.00 0.00 0.00 30 920.7
20260506061001 76 0.0 0.0 0.00 0.00 0.00 32 920.9
20260506060501 80 0.0 0.0 0.00 0.00 0.00 30 920.9
20260506051001 42 0.0 0.0 0.00 0.00 0.00 73 921.9
20260506050501 42 0.0 0.0 0.00 0.00 0.00 72 922.0
20260506045001 44 0.0 0.0 0.00 0.00 0.00 72 922.0
20260506044501 44 0.0 0.0 0.00 0.00 0.00 74 921.8
20260506044001 43 0.0 0.0 0.00 0.00 0.00 75 921.9
20260506043501 42 0.0 0.0 0.00 0.00 0.00 76 921.9
20260506043001 41 0.0 0.0 0.00 0.00 0.00 76 921.9
20260506042501 40 0.0 0.0 0.00 0.00 0.00 75 921.9
20260506042001 41 0.0 0.0 0.00 0.00 0.00 75 921.8
20260506041501 41 0.0 0.0 0.00 0.00 0.00 76 921.8
20260506041001 40 0.0 0.0 0.00 0.00 0.00 75 921.8
20260506040501 41 0.0 0.0 0.00 0.00 0.00 75 921.7
20260506040001 40 0.0 0.0 0.00 0.00 0.00 75 921.6
20260506035501 40 0.0 0.0 0.00 0.00 0.00 74 921.6
20260506035001 41 0.0 0.0 0.00 0.00 0.00 75 921.6
20260506034501 41 0.0 0.0 0.00 0.00 0.00 75 921.6
20260506034001 41 0.0 0.0 0.00 0.00 0.00 75 921.6
20260506033501 41 0.0 0.0 0.00 0.00 0.00 74 921.6
20260506033001 41 0.0 0.0 0.00 0.00 0.00 75 921.7
20260506032501 41 0.0 0.0 0.00 0.00 0.00 74 921.7
20260506032001 40 0.0 0.0 0.00 0.00 0.00 74 921.6
20260506031501 41 0.0 0.0 0.00 0.00 0.00 73 921.6
20260506031001 41 0.0 0.0 0.00 0.00 0.00 73 921.6
20260506030501 41 0.0 0.0 0.00 0.00 0.00 73 921.6
20260506030001 42 0.0 0.0 0.00 0.00 0.00 73 921.6
20260506025501 42 0.0 0.0 0.00 0.00 0.00 74 921.6
20260506025001 42 0.0 0.0 0.00 0.00 0.00 74 921.5
20260506024501 42 0.0 0.0 0.00 0.00 0.00 74 921.5
20260506024001 42 0.0 0.0 0.00 0.00 0.00 74 921.4
20260506023501 41 0.0 0.0 0.00 0.00 0.00 74 921.4
20260506023001 41 0.0 0.0 0.00 0.00 0.00 72 921.5
20260506022501 42 0.0 0.0 0.00 0.00 0.00 72 921.4
20260506022001 43 0.0 0.0 0.00 0.00 0.00 73 921.3
20260506021501 43 0.0 0.0 0.00 0.00 0.00 74 921.3
20260506021001 42 0.0 0.0 0.00 0.00 0.00 74 921.3
20260506020501 42 0.0 0.0 0.00 0.00 0.00 74 921.3
20260506020001 41 0.0 0.0 0.00 0.00 0.00 73 921.3
20260506015501 41 0.0 0.0 0.00 0.00 0.00 72 921.3
20260506015001 43 0.0 0.0 0.00 0.00 0.00 72 921.2
20260506014501 43 0.0 0.0 0.00 0.00 0.00 72 921.2
20260506014001 43 0.0 0.0 0.00 0.00 0.00 72 921.2
20260506013501 43 0.0 0.0 0.00 0.00 0.00 71 921.1
20260506013001 43 0.0 0.0 0.00 0.00 0.00 71 921.1
20260506012501 44 0.0 0.0 0.00 0.00 0.00 71 921.1
20260506012001 45 0.0 0.0 0.00 0.00 0.00 72 921.1
20260506011501 44 0.0 0.0 0.00 0.00 0.00 72 921.1
20260506011001 43 0.0 0.0 0.00 0.00 0.00 72 921.1
20260506010501 42 0.0 0.0 0.00 0.00 0.00 72 921.1
20260506010001 43 0.0 0.0 0.00 0.00 0.00 70 921.0
20260506005501 45 0.0 0.0 0.00 0.00 0.00 70 920.9
20260506005001 45 0.0 0.0 0.00 0.00 0.00 70 920.8
20260506004501 45 0.0 0.0 0.00 0.00 0.00 70 920.8
20260506004001 45 0.0 0.0 0.00 0.00 0.00 70 920.8
20260506003501 44 0.0 0.0 0.00 0.00 0.00 70 920.8
20260506003001 44 0.0 0.0 0.00 0.00 0.00 69 920.8
20260506002501 45 0.0 0.0 0.00 0.00 0.00 68 920.7
20260506002001 46 0.0 0.0 0.00 0.00 0.00 68 920.7
20260506001501 46 0.0 0.0 0.00 0.00 0.00 69 920.7
20260506001001 46 0.0 0.0 0.00 0.00 0.00 69 920.7
20260506000501 45 0.0 0.0 0.00 0.00 0.00 68 920.7
20260506000001 46 0.0 0.0 0.00 0.00 0.00 68 920.7
20260505235501 46 0.0 0.0 0.00 0.00 0.00 68 920.7
20260505235001 46 0.0 0.0 0.00 0.00 0.00 68 920.6
20260505234501 46 0.0 0.0 0.00 0.00 0.00 67 920.6
20260505234001 46 0.0 0.0 0.00 0.00 0.00 66 920.7
20260505233501 47 0.0 0.0 0.00 0.00 0.00 66 920.7
20260505233001 47 0.0 0.0 0.00 0.00 0.00 66 920.7
20260505232501 47 0.0 0.0 0.00 0.00 0.00 66 920.8
20260505232001 47 0.0 0.0 0.00 0.00 0.00 66 920.8
20260505231501 47 0.0 0.0 0.00 0.00 0.00 66 920.8
20260505231001 47 0.0 0.0 0.00 0.00 0.00 65 920.7
20260505230501 47 0.0 0.0 0.00 0.00 0.00 65 920.8
20260505230001 47 0.0 0.0 0.00 0.00 0.00 65 920.8
20260505225501 48 0.0 0.0 0.00 0.00 0.00 64 920.8
20260505225001 48 0.0 0.0 0.00 0.00 0.00 64 920.7
20260505224501 49 0.0 0.0 0.00 0.00 0.00 63 920.8
20260505224001 49 0.0 0.0 0.00 0.00 0.00 63 920.7
20260505223501 49 0.0 0.0 0.00 0.00 0.00 63 920.7
20260505223001 49 0.0 0.0 0.00 0.00 0.00 63 920.7
20260505222501 49 0.0 0.0 0.00 0.00 0.00 63 920.7
20260505222001 50 0.0 0.0 0.00 0.00 0.00 62 920.7
20260505221501 49 0.0 0.0 0.00 0.00 0.00 63 920.6
20260505221001 49 0.0 0.0 0.00 0.00 0.00 62 920.6
20260505220501 49 0.0 0.0 0.00 0.00 0.00 62 920.6
20260505220001 49 0.0 0.0 0.00 0.00 0.00 62 920.4
20260505215501 49 0.0 0.0 0.00 0.00 0.00 62 920.4
20260505215001 50 0.0 0.0 0.00 0.00 0.00 61 920.4
20260505214501 50 0.0 0.0 0.00 0.00 0.00 61 920.3
20260505214001 50 0.0 0.0 0.00 0.00 0.00 61 920.3
20260505213501 50 0.0 0.0 0.00 0.00 0.00 61 920.3
20260505213001 50 0.0 0.0 0.00 0.00 0.00 60 920.2
20260505212501 51 0.0 0.0 0.00 0.00 0.00 59 920.2
20260505212001 51 0.0 0.0 0.00 0.00 0.00 60 920.2
20260505211501 51 0.0 0.0 0.00 0.00 0.00 59 920.1
20260505211001 51 0.0 0.0 0.00 0.00 0.00 59 920.1
20260505210501 52 0.0 0.0 0.00 0.00 0.00 57 920.0
20260505210001 52 0.0 0.0 0.00 0.00 0.00 58 920.0
20260505205501 52 0.0 0.0 0.00 0.00 0.00 58 920.0
20260505205001 53 0.0 0.0 0.00 0.00 0.00 57 919.9
20260505204501 53 0.0 0.0 0.00 0.00 0.00 57 919.8
20260505204001 52 0.0 0.0 0.00 0.00 0.00 57 919.8
20260505203501 52 0.0 0.0 0.00 0.00 0.00 57 919.8
20260505203001 54 0.0 0.0 0.00 0.00 0.00 55 919.8
20260505202501 54 0.0 0.0 0.00 0.00 0.00 54 919.7
20260505202001 54 0.0 0.0 0.00 0.00 0.00 54 919.7
20260505201501 54 0.0 0.0 0.00 0.00 0.00 54 919.7
20260505201001 54 0.0 0.0 0.00 0.00 0.00 54 919.8
20260505200501 54 0.0 0.0 0.00 0.00 0.00 54 919.8
20260505200001 55 0.0 0.0 0.00 0.00 0.00 53 919.7
20260505195501 55 0.0 0.0 0.00 0.00 0.00 54 919.8
20260505195001 55 0.0 0.0 0.00 0.00 0.00 53 919.7
20260505194501 55 0.0 0.0 0.00 0.00 0.00 53 919.6
20260505194001 55 0.0 0.0 0.00 0.00 0.00 54 919.7
20260505193501 55 0.0 0.0 0.00 0.00 0.00 54 919.7
20260505193001 55 0.0 0.0 0.00 0.00 0.00 54 919.6
20260505192501 55 0.0 0.0 0.00 0.00 0.00 54 919.5
20260505192001 55 0.0 0.0 0.00 0.00 0.00 53 919.4
20260505191501 56 0.0 0.0 0.00 0.00 0.00 52 919.5
20260505191001 56 0.0 0.0 0.00 0.00 0.00 52 919.6
20260505190501 56 0.0 0.0 0.00 0.00 0.00 51 919.5
20260505190001 57 0.0 0.0 0.00 0.00 0.00 50 919.4
20260505185501 57 0.0 0.0 0.00 0.00 0.00 50 919.4
20260505185001 58 0.0 0.0 0.00 0.00 0.00 49 919.3
20260505184501 57 0.0 0.0 0.00 0.00 0.00 50 919.2
20260505184001 58 0.0 0.0 0.00 0.00 0.00 49 919.2
20260505183501 58 0.0 0.0 0.00 0.00 0.00 49 919.2
20260505183001 58 0.0 0.0 0.00 0.00 0.00 48 919.2
20260505182501 59 0.0 0.0 0.00 0.00 0.00 47 919.0
20260505182001 59 0.0 0.0 0.00 0.00 0.00 46 918.9
20260505181501 60 0.0 0.0 0.00 0.00 0.00 46 918.8
20260505181001 60 0.0 0.0 0.00 0.00 0.00 46 918.9
20260505180501 60 0.0 0.0 0.00 0.00 0.00 45 918.9
20260505180001 61 0.0 0.0 0.00 0.00 0.00 44 918.9
20260505175501 61 0.0 0.0 0.00 0.00 0.00 45 918.9
20260505175001 61 0.0 0.0 0.00 0.00 0.00 45 918.9
20260505174501 61 0.0 0.0 0.00 0.00 0.00 44 919.0
20260505174001 61 0.0 0.0 0.00 0.00 0.00 44 919.0
20260505173501 62 0.0 0.0 0.00 0.00 0.00 44 918.9
20260505173001 62 0.0 0.0 0.00 0.00 0.00 43 919.0
20260505172501 63 0.0 0.0 0.00 0.00 0.00 42 918.9
20260505172001 63 0.0 0.0 0.00 0.00 0.00 42 919.0
20260505171501 63 0.0 0.0 0.00 0.00 0.00 42 919.0
20260505171001 64 0.0 0.0 0.00 0.00 0.00 41 919.0
20260505170501 64 0.0 0.0 0.00 0.00 0.00 40 918.9
20260505170001 66 0.0 0.0 0.00 0.00 0.00 38 919.0
20260505165501 67 0.0 0.0 0.00 0.00 0.00 37 918.8
20260505165001 67 0.0 0.0 0.00 0.00 0.00 38 918.9
20260505164501 67 0.0 0.0 0.00 0.00 0.00 37 918.9
20260505164001 66 0.0 0.0 0.00 0.00 0.00 39 919.0
20260505163501 65 0.0 0.0 0.00 0.00 0.00 39 919.0
20260505163001 65 0.0 0.0 0.00 0.00 0.00 38 919.1
20260505162501 66 0.0 0.0 0.00 0.00 0.00 38 919.2
20260505162001 66 0.0 0.0 0.00 0.00 0.00 37 919.1
20260505161501 68 0.0 0.0 0.00 0.00 0.00 36 919.2
20260505161001 69 0.0 0.0 0.00 0.00 0.00 34 919.1
20260505160501 70 0.0 0.0 0.00 0.00 0.00 34 919.1
20260505153001 72 0.0 0.0 0.00 0.00 0.00 33 918.9
20260505152501 71 0.0 0.0 0.00 0.00 0.00 34 919.1
20260505152001 71 0.0 0.0 0.00 0.00 0.00 33 919.2
20260505151501 72 0.0 0.0 0.00 0.00 0.00 33 919.1
20260505151001 71 0.0 0.0 0.00 0.00 0.00 33 919.2
20260505150501 72 0.0 0.0 0.00 0.00 0.00 33 919.3
20260505140501 77 0.0 0.0 0.00 0.00 0.00 27 919.1
20260505130233 73 0.0 0.0 0.00 0.00 0.00 30 919.6
20260505124733 73 0.0 0.0 0.00 0.00 0.00 30 919.8
20260505124233 73 0.0 0.0 0.00 0.00 0.00 29 919.9
20260505123733 72 0.0 0.0 0.00 0.00 0.00 30 920.0
20260505123233 73 0.0 0.0 0.00 0.00 0.00 29 920.0
20260505122205 76 0.0 0.0 0.00 0.00 0.00 27 920.0
20260505121705 77 0.0 0.0 0.00 0.00 0.00 27 919.9
20260505121205 76 0.0 0.0 0.00 0.00 0.00 27 920.0
20260505120705 76 0.0 0.0 0.00 0.00 0.00 29 920.0
20260505120205 77 0.0 0.0 0.00 0.00 0.00 28 920.0
20260505115705 78 0.0 0.0 0.00 0.00 0.00 26 920.0
20260505115205 78 0.0 0.0 0.00 0.00 0.00 26 919.9
20260505114705 76 0.0 0.0 0.00 0.00 0.00 26 919.8
20260505114205 76 0.0 0.0 0.00 0.00 0.00 28 919.8
20260505113705 77 0.0 0.0 0.00 0.00 0.00 26 919.9